Wind_Speed
26 26 27 27 26 25 24 22 20 19 18 17 15 15 14 13 13 12 12 12 12 14 14 15 16 18 19 20 21 22 22 23 24 25 26 28 31 33 35 36 37 38 38 38 38 38 37 36 35 34 33 32 32 31 30 29 28 27 26 26 27 29 30 29 29 29 28 29 31 33 34 34 33 32 33 34 36 39 41 42 43 44 44 42 41 42 43 43
27 28 28 28 27 26 25 23 21 20 19 18 16 15 15 14 14 13 12 12 13 14 14 15 16 18 19 20 21 21 22 23 23 25 27 29 32 33 35 36 37 39 40 39 38 38 38 37 36 36 35 34 34 33 32 31 30 30 29 28 28 30 30 30 29 30 30 31 32 33 34 36 36 34 34 35 36 39 41 43 45 45 44 44 43 43 44 44
29 29 29 29 28 27 25 24 22 21 20 19 17 16 16 15 14 13 13 13 13 14 15 15 16 18 19 19 20 21 22 23 24 26 29 31 33 35 36 37 37 39 40 40 39 40 39 38 38 38 38 38 37 36 35 34 32 32 32 30 31 32 32 32 32 31 33 34 35 35 35 37 38 38 37 36 38 40 42 43 45 45 45 45 45 44 45 46
30 30 30 29 29 28 26 25 24 22 21 20 18 18 17 16 15 14 13 14 14 15 16 17 17 18 19 19 20 21 22 24 25 28 30 32 34 36 37 38 39 40 39 39 40 41 41 40 39 39 40 41 41 40 38 37 36 35 35 33 33 35 35 35 35 34 35 37 37 37 37 38 39 40 40 39 40 42 43 45 45 45 46 46 46 47 47 48
31 31 31 30 29 29 27 26 25 23 22 21 19 19 18 17 16 14 14 14 15 15 16 17 18 18 19 20 21 21 23 24 27 29 31 33 35 37 38 39 40 40 40 40 40 41 41 40 40 40 40 41 41 41 40 39 38 38 38 36 35 38 38 38 38 38 38 39 39 39 40 40 40 41 42 42 42 43 45 46 47 47 48 48 48 49 49 50
33 32 32 31 30 29 28 26 25 24 23 22 21 20 19 18 17 16 15 15 16 17 17 18 19 19 20 21 22 23 24 26 28 30 32 34 36 37 38 39 40 41 41 42 43 42 40 40 39 40 40 40 40 40 40 40 39 39 40 39 38 39 40 40 40 40 41 40 40 41 41 41 40 41 43 44 44 45 46 47 48 49 49 49 50 50 51 53
34 34 33 32 31 30 28 27 26 25 24 23 22 21 20 19 19 18 16 16 17 18 18 19 21 21 22 22 23 24 25 27 29 31 33 35 36 37 38 39 40 41 42 44 44 42 40 39 39 39 39 39 38 38 38 38 38 39 40 40 39 39 40 41 42 42 42 41 41 42 42 42 41 40 42 44 45 46 48 49 49 49 50 50 51 52 54 54
35 35 34 33 32 31 29 28 27 26 25 24 23 22 21 20 19 19 18 18 18 19 20 21 22 23 24 24 25 26 27 28 30 32 34 36 36 37 38 39 40 41 43 44 43 41 39 39 39 39 38 37 37 36 36 36 36 37 38 39 38 37 37 38 40 41 41 42 42 41 42 42 41 40 41 43 46 48 50 50 49 50 51 52 54 55 55 54
36 36 36 35 33 32 30 28 27 27 26 25 24 23 22 22 21 20 20 19 20 21 21 22 24 25 25 26 27 28 29 30 31 33 35 36 37 38 38 39 41 42 44 44 42 39 38 38 39 38 37 36 36 35 35 34 34 34 35 37 38 38 36 36 37 39 39 40 41 41 41 42 42 42 42 44 47 49 50 49 49 51 52 54 54 54 54 55
37 37 36 36 34 33 31 30 28 27 27 26 25 24 24 23 22 21 21 21 21 22 23 24 25 26 26 27 28 28 29 30 32 34 36 37 38 39 39 40 41 43 45 44 41 39 37 37 38 37 36 35 35 35 34 33 33 33 33 34 35 36 37 37 37 38 39 40 41 41 42 42 43 44 43 44 46 48 49 50 51 53 53 53 54 54 56 57
38 38 37 37 35 34 32 31 29 28 27 27 26 25 25 25 24 23 23 22 22 24 25 26 26 27 27 28 28 29 30 31 33 35 37 38 39 40 40 41 42 44 45 44 40 39 38 37 37 37 36 35 35 35 34 34 34 34 34 34 34 34 35 36 37 38 39 41 42 43 44 44 43 42 41 42 45 48 50 51 52 52 53 53 55 57 59 60
40 39 38 37 36 34 33 32 30 29 28 27 27 26 25 25 26 25 24 23 24 25 26 27 28 29 28 29 29 30 31 32 34 36 37 38 39 40 40 42 43 45 45 43 40 38 38 38 38 37 36 35 34 35 36 36 36 36 36 36 35 35 35 36 37 39 40 42 43 43 44 43 42 40 40 42 46 49 51 51 51 52 53 55 57 59 61 62
41 40 39 39 37 36 34 33 31 30 29 28 27 27 26 26 26 26 26 25 25 26 27 28 29 30 30 30 31 32 32 34 35 37 38 39 39 40 41 42 44 45 44 42 39 39 38 39 39 38 38 37 35 35 36 37 38 39 39 39 39 39 38 39 41 41 43 44 44 43 43 43 42 41 42 45 47 49 49 50 51 53 55 57 59 61 63 64
42 42 41 40 39 37 35 34 32 31 30 29 28 28 28 27 27 27 27 26 26 27 28 29 30 32 32 32 32 33 33 34 36 38 39 39 39 40 41 43 44 45 43 40 39 39 39 39 39 40 39 39 37 36 36 37 39 41 41 41 42 42 42 42 44 45 45 46 47 46 45 44 44 44 46 47 48 49 49 51 53 55 57 59 61 63 64 66
43 43 42 41 40 38 36 35 34 33 31 30 29 29 29 28 28 28 28 28 28 29 30 30 31 33 34 33 32 33 34 36 38 40 40 40 40 40 42 44 44 44 42 39 39 39 39 39 39 39 39 40 39 38 38 39 41 44 45 45 44 43 42 42 44 46 47 47 47 48 48 48 47 46 46 47 48 50 52 55 56 57 59 61 63 64 66 67
43 43 43 42 41 39 38 36 35 34 33 32 31 30 30 29 29 29 29 29 29 30 32 32 33 34 35 34 33 34 36 38 40 41 41 40 40 41 43 44 45 44 42 39 39 39 39 39 39 38 39 40 40 41 42 43 44 45 46 46 45 44 42 41 42 44 46 46 46 47 48 50 49 47 48 50 53 55 58 59 60 61 62 63 65 66 67 68
44 44 43 43 42 41 39 37 36 35 34 34 33 31 31 31 30 30 30 30 30 32 34 34 35 35 36 35 35 36 37 39 41 42 42 40 41 42 44 45 45 44 43 40 39 39 39 39 39 39 39 40 41 42 43 44 44 43 43 43 43 43 42 40 40 42 44 45 46 46 47 49 50 50 53 56 58 60 62 63 64 65 66 66 67 68 70 70
44 44 44 43 42 41 40 38 37 36 36 35 35 34 32 32 31 32 32 31 32 33 35 37 36 37 38 37 37 38 39 42 43 43 42 41 42 44 45 46 46 45 43 41 40 40 40 40 40 40 40 40 41 41 41 41 42 42 41 41 42 42 42 40 39 41 42 43 45 46 46 49 52 55 57 59 60 61 63 64 64 66 67 69 70 71 71 72
43 44 44 43 43 42 41 39 38 38 38 37 36 36 35 34 32 33 33 33 34 35 37 39 39 40 40 40 40 41 42 44 45 44 43 43 43 45 47 47 47 45 44 42 41 41 41 41 41 42 42 42 42 42 42 41 42 42 42 41 42 42 43 42 40 42 42 43 45 47 48 52 55 56 57 58 60 61 62 63 64 65 67 69 71 71 72 73
43 44 44 43 43 42 41 41 40 40 40 39 38 37 37 36 35 35 35 35 36 37 39 40 42 43 43 43 43 43 44 46 46 46 44 44 44 46 48 48 48 45 43 43 42 42 42 42 43 44 44 44 44 44 44 43 44 44 43 43 43 42 43 43 42 43 45 45 48 50 51 54 56 55 55 57 59 61 61 62 63 65 68 70 71 71 72 72
43 44 44 44 43 42 42 42 42 41 41 40 40 39 38 37 37 36 37 39 39 40 41 42 43 45 45 45 45 44 45 47 47 46 45 45 46 48 49 49 48 45 43 43 43 44 44 43 45 46 47 47 47 47 46 46 46 45 45 44 44 43 43 44 45 46 48 49 50 52 52 54 56 55 55 57 60 60 61 63 65 68 70 71 71 71 71 71
43 44 44 44 43 43 43 44 43 42 42 42 41 41 39 38 37 36 38 41 42 43 44 45 45 46 46 45 45 45 46 47 48 47 46 46 48 50 50 49 47 45 43 43 43 44 44 44 46 47 49 50 50 49 49 48 47 47 47 47 47 47 45 46 48 48 49 50 50 51 51 53 55 55 57 59 61 62 64 66 68 70 71 71 70 70 70 70
44 44 44 44 44 44 44 45 44 43 42 42 42 42 41 40 39 38 39 41 44 46 48 48 48 48 47 45 45 46 47 48 48 48 47 48 50 51 50 49 47 45 42 43 43 43 44 44 46 48 50 51 52 52 51 49 48 49 50 49 50 50 49 49 50 50 50 51 51 50 51 52 54 56 59 62 63 65 67 68 70 71 71 71 70 70 70 72
44 44 45 45 45 45 45 45 45 44 44 43 43 43 43 42 41 42 42 41 43 48 49 50 50 50 48 46 45 46 47 48 48 49 49 50 51 51 50 48 47 45 42 42 43 43 44 44 46 48 50 52 53 54 53 50 49 51 52 53 52 53 52 52 52 51 51 53 54 53 52 50 53 56 60 64 66 68 69 70 71 72 72 72 72 72 72 75
45 45 46 46 46 46 46 46 46 46 46 45 45 45 45 45 44 44 44 42 43 47 50 51 51 50 48 46 46 46 47 48 49 50 51 51 51 51 50 48 46 45 42 42 43 43 44 45 47 49 51 53 53 54 54 52 51 53 55 56 56 56 57 57 56 54 52 54 55 57 55 50 51 56 60 64 68 70 71 72 74 75 75 75 75 76 76 79
46 46 47 47 47 47 47 47 48 47 47 47 46 46 47 46 46 46 45 43 43 47 50 51 51 50 48 46 46 47 48 49 50 51 51 52 52 51 50 48 46 45 43 42 43 44 44 47 49 50 52 53 54 54 55 54 54 54 56 58 59 60 60 60 58 56 54 54 55 59 59 53 51 56 61 66 70 71 74 76 77 79 79 79 79 79 79 82
47 47 48 48 49 49 48 49 49 48 48 48 48 48 48 48 48 47 47 44 42 46 50 51 51 50 48 47 47 48 50 51 51 52 52 52 52 52 50 49 47 46 45 43 43 45 46 48 50 51 52 54 55 55 55 55 55 55 56 58 59 60 59 59 57 57 56 55 56 61 63 58 54 58 64 69 71 73 76 78 80 83 84 83 82 81 82 84
48 48 48 49 49 49 49 49 50 50 50 49 49 50 49 50 50 48 48 44 40 44 50 51 51 50 49 48 49 51 52 53 53 53 54 53 53 53 51 50 49 48 47 44 43 46 47 49 51 51 53 54 55 56 56 56 56 56 57 57 59 59 59 59 57 58 58 55 57 62 65 62 59 61 68 72 74 78 80 81 83 85 86 85 83 82 83 85
51 50 51 51 51 51 51 51 51 52 51 51 51 51 51 51 50 49 49 44 41 45 49 51 52 51 49 50 51 53 54 55 55 55 55 54 54 54 53 52 52 51 50 47 45 47 48 50 51 52 54 55 56 57 58 58 57 58 58 58 60 60 59 59 58 58 58 56 59 62 65 66 63 66 73 76 78 81 82 83 85 86 87 85 83 83 84 87
52 52 53 54 53 53 54 54 54 54 54 54 53 52 52 51 50 50 47 45 45 47 48 50 52 51 50 51 53 55 56 56 57 57 57 56 56 57 57 56 55 55 54 52 48 47 49 51 53 54 55 56 57 59 59 58 59 60 60 60 60 60 60 59 59 60 59 57 60 63 66 69 67 69 76 78 81 83 84 85 87 87 87 85 84 84 86 88
53 53 54 55 55 55 56 57 57 56 56 55 54 52 50 50 50 49 47 47 49 48 48 51 51 50 51 53 55 57 57 58 59 59 58 57 58 60 61 60 60 59 57 56 52 49 51 53 54 56 57 58 59 60 60 60 61 61 62 61 61 60 60 59 59 61 59 59 61 63 66 69 71 74 78 80 83 84 85 87 87 87 88 87 86 86 87 90
57 55 55 55 56 56 57 58 57 57 56 54 52 50 49 50 50 48 49 51 52 49 50 52 51 51 53 54 56 58 59 60 60 60 60 59 60 62 63 64 65 63 59 57 55 51 51 54 56 58 60 61 62 63 63 63 63 63 64 64 64 63 61 59 61 61 60 61 63 64 67 69 72 76 79 81 84 85 87 87 87 89 89 88 87 88 89 91
60 59 58 57 57 57 58 58 57 56 55 53 52 50 50 51 48 48 52 55 55 51 51 53 53 53 54 55 58 60 61 61 61 61 61 61 61 63 65 66 69 68 63 59 55 51 49 52 57 60 61 64 65 66 66 66 65 64 66 68 68 67 64 61 62 62 61 64 64 66 69 71 73 76 78 82 85 87 88 88 89 91 91 90 90 90 92 93
61 61 60 60 60 59 60 60 59 58 56 55 53 52 52 50 48 51 54 56 57 54 53 54 55 55 56 57 60 62 64 63 62 63 62 61 62 63 65 69 71 72 69 64 58 53 51 53 58 60 62 65 68 68 69 69 68 67 69 71 71 72 70 65 64 65 65 65 65 68 71 73 73 74 78 83 86 89 90 91 92 93 91 92 92 93 95 95
63 63 62 62 62 62 62 62 61 60 59 58 57 56 53 50 51 55 57 57 59 58 57 58 57 57 57 60 62 64 66 64 63 64 63 63 63 62 66 70 72 74 73 69 62 58 57 57 59 62 63 67 69 71 72 74 74 73 73 74 74 73 73 71 68 69 70 68 66 68 71 72 72 74 80 85 88 90 91 92 93 93 92 93 94 95 96 95
67 65 65 64 64 65 65 65 64 63 62 62 61 59 55 53 55 59 59 60 61 61 61 61 60 60 61 63 64 66 68 67 65 64 63 63 63 63 67 71 73 75 75 72 68 65 63 60 61 64 65 68 71 73 74 76 78 78 77 77 76 75 75 75 73 72 74 72 68 68 69 71 73 77 81 86 89 89 90 91 92 91 91 93 95 96 96 96
70 69 68 68 68 69 69 68 68 67 66 66 64 61 58 56 58 62 63 63 64 65 65 65 64 65 65 65 66 68 70 70 68 67 66 66 65 65 69 72 73 76 76 75 73 71 69 65 63 66 68 69 72 74 75 76 79 81 81 80 79 78 78 78 77 76 78 78 73 68 68 72 75 78 81 86 89 89 89 90 90 90 91 93 95 96 96 96
73 72 70 71 73 74 73 72 72 71 70 68 64 62 62 61 62 67 68 67 68 68 68 68 68 69 68 68 69 71 72 71 70 70 71 70 69 69 71 73 75 77 77 77 76 75 75 70 65 66 70 72 74 75 76 77 80 81 82 81 80 81 80 79 80 80 82 84 78 72 72 73 75 78 84 88 89 89 90 90 89 89 91 94 96 97 97 99
76 74 72 73 77 78 77 76 75 74 72 68 66 65 65 65 66 69 70 70 71 71 71 71 72 72 71 72 73 74 75 73 72 73 74 73 72 72 73 75 77 79 79 79 79 79 79 76 69 67 71 73 74 76 77 78 81 82 82 81 81 83 82 80 80 82 86 87 84 81 79 74 74 80 87 89 89 90 91 90 89 90 93 96 98 98 100 101
76 75 73 75 81 82 81 80 78 76 73 70 68 68 69 69 69 71 73 74 73 73 73 74 75 75 74 76 76 77 77 75 74 76 76 76 75 74 74 77 79 81 81 81 82 82 82 80 74 71 73 74 74 76 77 78 82 83 82 81 83 84 83 81 79 81 88 89 87 89 85 77 79 86 90 91 92 93 93 92 91 93 95 98 99 100 103 104
76 75 72 75 82 84 84 82 78 76 74 71 70 72 73 73 72 73 76 77 76 76 76 76 76 77 78 79 79 80 80 77 76 79 79 78 77 76 76 78 80 81 82 83 83 84 84 82 79 76 76 75 75 76 77 79 82 83 82 82 84 85 84 84 81 82 88 89 89 94 89 80 84 92 93 95 96 96 95 94 94 97 100 101 101 103 106 107
77 74 73 76 81 83 84 81 76 75 72 70 72 76 76 75 74 75 77 79 79 78 78 77 78 79 80 81 82 82 81 80 79 81 81 78 77 77 78 80 81 82 83 83 83 84 85 84 82 79 78 78 77 77 77 80 82 82 81 82 84 85 85 86 86 86 89 89 92 97 91 84 88 93 94 97 99 98 96 96 97 101 103 103 104 106 108 111
77 76 75 77 79 81 82 79 75 74 72 72 75 77 76 75 75 75 77 78 78 79 79 78 79 80 81 82 83 82 82 82 81 82 82 79 77 79 80 81 82 83 84 84 83 85 85 85 84 82 80 80 79 78 80 82 82 81 81 83 84 85 85 86 89 91 90 90 94 97 92 90 93 94 95 100 101 99 97 97 101 104 105 106 107 109 111 113
81 79 77 75 76 78 79 76 75 75 74 74 75 74 74 76 75 75 76 77 78 78 77 77 78 81 81 82 82 82 83 84 83 82 81 79 78 80 82 83 83 83 83 84 84 85 85 85 85 84 83 81 79 80 82 83 83 82 82 84 85 86 86 87 90 94 92 92 95 96 95 96 97 96 100 104 103 100 99 101 105 107 108 108 109 111 114 116
87 84 80 77 77 77 76 75 77 77 75 76 77 75 75 76 75 75 77 78 77 76 76 77 78 81 81 82 82 83 85 86 85 82 79 79 81 83 85 85 83 83 84 85 86 86 85 85 86 87 89 86 83 84 86 86 86 85 84 86 87 87 88 90 94 95 95 95 95 95 99 99 97 101 107 107 103 102 103 106 109 110 110 111 112 114 117 119
92 88 84 81 81 79 77 77 79 79 78 80 80 77 76 76 75 76 78 78 76 77 78 79 79 81 82 83 84 85 85 86 85 81 79 82 85 86 86 85 84 84 85 86 87 87 88 86 86 89 91 89 88 90 92 92 91 89 88 89 89 90 92 95 97 96 98 101 95 95 101 100 97 105 113 109 105 105 108 111 112 113 113 113 115 118 120 122
95 90 86 86 87 85 81 79 81 81 82 85 83 78 76 76 76 77 78 78 78 80 80 80 80 82 83 85 87 87 85 85 84 82 83 86 89 89 87 85 85 85 86 87 88 90 91 88 87 91 92 90 91 93 95 97 95 93 93 92 90 93 96 99 99 98 102 105 98 97 103 102 101 110 115 111 108 109 112 114 115 115 116 116 118 121 122 124
97 92 89 91 92 89 85 84 85 86 87 87 84 78 76 77 78 79 79 80 81 82 82 82 81 82 85 87 90 89 85 84 85 85 88 91 91 90 87 85 85 85 86 88 89 91 93 90 89 93 93 91 92 95 98 100 99 96 96 94 93 95 99 100 100 101 105 107 102 101 104 103 106 114 115 112 112 114 115 116 117 117 118 118 121 123 125 127
97 94 92 94 95 93 91 90 90 89 87 87 86 80 77 79 80 81 82 84 85 84 85 85 81 82 87 91 93 90 85 86 89 89 91 94 92 90 88 86 86 86 87 89 90 92 94 92 91 95 96 93 94 99 101 102 102 99 95 95 96 98 100 101 102 105 107 108 105 105 105 105 110 115 115 114 116 117 117 118 118 119 120 121 123 125 127 129
95 95 95 98 98 95 94 94 93 92 90 90 88 82 81 83 82 83 88 89 87 86 88 86 84 87 93 95 94 90 86 91 95 94 94 96 93 90 89 87 87 88 89 90 91 93 95 94 94 96 98 95 96 101 103 104 105 99 93 95 100 101 101 104 106 107 109 109 109 109 108 109 113 116 115 117 119 120 119 119 120 121 122 123 125 127 129 131
95 98 100 102 99 95 96 96 96 96 92 88 85 83 86 87 85 89 93 91 87 88 89 88 89 93 96 95 92 90 91 97 100 97 97 97 95 92 91 90 89 90 90 91 92 94 97 97 96 98 100 99 99 103 105 107 106 98 92 96 102 103 103 106 107 108 111 113 112 112 113 114 116 116 116 118 122 122 121 121 122 122 124 125 127 129 131 133
98 101 103 105 103 98 97 97 98 97 89 82 85 89 89 89 89 95 97 92 88 90 91 91 93 95 96 94 92 93 97 101 102 99 98 98 96 94 93 92 91 92 92 93 95 97 98 98 98 100 103 103 104 106 109 110 105 97 94 98 102 104 105 107 108 110 113 115 115 115 117 118 118 117 118 121 123 123 123 123 123 124 126 127 129 131 133 135
Wind_Direction
217 216 216 217 218 220 222 224 226 230 235 238 241 246 251 256 261 264 267 274 282 290 296 301 304 307 310 312 314 315 319 322 326 329 332 334 334 333 333 334 334 334 334 334 333 333 332 330 328 329 331 330 329 328 323 317 313 310 308 306 305 303 303 304 306 306 307 307 309 313 315 317 321 324 325 326 324 321 320 320 319 318 318 320 321 322 322 323
218 218 218 218 219 221 223 225 227 229 233 237 241 246 250 255 261 266 271 277 284 290 295 298 302 304 307 310 312 315 318 322 325 328 331 332 331 332 332 333 334 333 333 333 332 332 331 329 326 325 326 326 324 323 321 317 311 306 303 302 301 298 298 300 301 302 303 304 307 311 312 314 318 321 322 322 320 318 317 317 317 316 317 319 320 321 321 322
220 219 219 219 220 222 224 226 227 229 233 236 241 246 250 254 260 266 273 279 283 288 292 296 299 302 304 308 312 316 318 321 324 328 330 329 330 330 331 333 334 333 333 332 331 331 330 328 325 323 322 322 321 319 318 315 311 304 299 298 297 295 295 297 298 299 300 303 306 309 311 312 315 318 319 318 317 315 315 315 314 314 315 317 318 319 319 321
221 221 221 221 221 222 224 226 228 230 232 236 240 245 251 256 259 265 273 280 283 287 291 294 297 299 302 306 310 314 317 321 323 326 328 328 329 330 330 332 332 332 332 331 330 329 327 325 323 321 320 319 318 317 315 313 312 307 301 297 294 292 293 295 297 298 300 302 305 307 309 310 313 315 316 317 316 315 314 313 312 313 314 316 317 318 320 322
222 223 223 223 223 223 225 227 228 230 233 236 239 244 250 256 261 265 271 279 284 287 290 294 295 297 300 305 309 312 316 319 322 324 325 327 328 328 329 330 330 331 331 329 328 326 325 323 321 320 319 318 316 315 314 312 311 309 305 301 295 291 292 294 296 298 299 302 304 306 307 309 312 314 315 316 315 315 314 312 312 313 315 316 318 319 321 322
224 224 224 225 225 225 226 227 228 230 232 235 240 243 248 255 261 265 270 277 284 288 290 293 296 297 300 304 307 311 314 317 320 322 323 325 325 326 326 328 328 329 329 327 326 325 325 324 323 321 320 320 318 316 314 312 311 309 307 306 302 296 294 294 295 297 299 302 304 305 307 310 313 314 314 315 315 314 312 311 313 314 315 316 318 319 320 322
225 225 226 226 227 227 228 229 229 231 233 235 239 243 248 252 259 264 269 275 282 287 290 293 296 298 300 303 306 309 312 314 316 318 321 322 322 323 324 326 327 327 327 326 325 325 325 325 325 324 324 323 322 321 318 316 315 313 311 309 306 303 300 298 297 297 299 302 304 305 307 310 313 314 314 314 313 311 310 312 313 314 315 316 317 318 320 322
226 226 227 228 228 229 230 230 230 231 234 236 239 243 248 252 257 262 269 274 280 285 288 292 295 297 300 302 305 308 310 312 314 316 318 318 319 321 322 324 325 325 325 325 324 324 325 326 326 327 327 327 327 326 325 324 323 321 319 316 313 310 307 302 299 298 300 302 303 304 306 309 311 312 313 312 309 308 310 312 313 314 315 316 318 320 321 322
228 227 228 229 230 231 232 232 232 232 234 237 240 244 248 253 257 262 267 273 278 282 286 289 292 295 298 300 303 306 309 311 312 314 315 315 317 318 321 322 322 322 323 324 323 324 325 325 327 328 328 328 329 329 329 329 330 329 326 323 321 319 315 309 304 301 300 301 301 303 305 307 310 312 313 310 308 308 310 312 314 315 316 318 319 320 320 320
229 229 229 230 231 233 234 234 234 234 235 238 241 244 249 253 257 262 266 271 276 281 285 287 290 292 295 298 301 303 306 309 310 311 312 313 315 317 320 321 321 321 322 322 322 322 323 324 326 327 327 327 328 329 330 330 331 331 329 326 323 321 318 314 310 306 303 302 302 304 305 307 309 312 313 310 308 309 310 313 315 316 317 318 319 319 319 319
231 230 230 231 233 234 236 236 237 237 237 239 242 245 249 254 258 261 265 269 274 279 283 286 289 291 293 296 298 301 304 306 307 308 309 310 313 316 319 320 320 320 320 320 320 321 322 322 323 324 325 326 327 328 328 328 328 328 326 324 322 319 316 313 311 308 306 304 304 305 306 307 309 312 312 311 310 310 312 314 316 317 318 319 319 319 319 320
234 232 232 233 234 235 237 238 239 239 239 240 243 247 250 255 259 262 264 268 272 277 281 285 288 289 291 293 295 298 301 302 303 304 305 308 312 315 317 318 319 319 319 318 318 320 321 320 321 321 321 322 324 324 324 324 324 323 322 320 319 317 315 312 309 307 305 303 304 305 306 308 310 312 313 312 312 312 314 316 317 318 319 319 319 319 319 320
235 234 233 234 235 236 238 239 240 241 242 243 245 248 251 254 259 262 264 267 271 276 280 283 287 289 290 292 294 297 299 300 300 301 303 306 311 314 316 317 318 318 317 315 315 318 320 320 320 319 318 318 319 319 319 319 319 319 318 316 315 313 312 310 309 308 306 306 307 308 309 310 312 314 314 314 313 313 315 316 316 317 317 317 317 317 318 318
237 236 235 235 236 238 239 240 242 243 244 245 247 250 253 255 258 262 264 268 272 276 280 283 286 289 290 291 293 296 297 298 298 299 302 306 310 313 315 317 317 317 315 313 314 317 319 319 318 318 317 317 316 316 316 316 316 315 315 314 312 311 311 311 312 312 311 312 313 314 313 312 313 314 314 314 313 313 314 314 313 314 314 313 314 315 316 318
238 238 237 237 238 239 240 242 243 244 245 247 248 251 255 257 258 262 265 269 274 278 280 283 285 289 290 291 293 295 296 297 297 299 302 307 310 312 315 317 318 317 313 311 313 316 318 319 319 318 317 316 316 315 315 314 314 314 314 314 313 312 312 312 313 313 313 314 314 314 313 312 313 313 312 311 311 311 311 311 312 312 312 313 314 315 316 318
239 239 239 239 240 241 242 243 245 246 248 249 250 252 255 258 259 262 266 271 275 279 282 283 285 288 290 291 293 295 296 296 297 300 303 306 308 310 314 316 318 317 312 309 310 314 317 319 319 317 317 317 317 317 316 315 314 314 315 315 314 314 313 314 312 311 311 312 312 312 313 313 313 314 314 312 312 312 312 313 314 315 315 316 316 317 318 318
240 240 240 240 241 242 243 245 246 248 249 251 253 254 255 258 261 263 267 272 276 279 282 283 285 287 289 291 292 294 295 296 298 301 303 305 306 308 312 315 317 316 312 308 309 313 315 318 318 318 319 319 319 317 316 316 316 317 317 316 316 315 315 315 313 311 312 314 314 314 314 314 315 317 317 317 317 316 316 317 318 318 318 318 318 319 318 318
242 241 241 241 242 244 245 246 248 249 251 253 255 256 256 258 261 265 269 272 275 279 281 283 285 286 288 289 291 292 295 296 298 301 302 303 304 307 310 313 315 315 312 308 308 311 313 315 317 318 319 319 319 318 318 318 318 318 318 317 317 317 317 317 317 315 315 316 315 315 316 316 317 319 319 319 318 317 317 318 318 318 318 317 318 318 318 317
244 244 243 243 244 245 246 247 249 250 252 254 256 258 259 260 263 267 270 273 276 278 280 283 285 286 288 290 291 293 294 295 296 299 301 301 303 306 309 311 313 313 310 307 305 307 311 313 314 316 317 318 318 318 318 318 318 317 316 316 317 317 317 317 318 316 316 317 315 315 317 317 317 318 318 317 316 315 316 316 316 315 315 315 316 316 316 317
246 246 246 245 246 246 247 249 250 251 254 255 257 259 261 264 266 269 272 275 277 279 281 283 285 287 289 291 292 293 293 292 294 297 299 300 303 306 308 310 311 310 309 306 305 305 308 311 312 313 315 316 317 318 318 317 316 315 314 314 315 315 315 314 315 315 315 316 314 315 317 316 316 317 317 315 313 314 314 313 313 313 312 313 314 315 316 317
248 248 248 247 247 248 248 250 251 252 255 257 259 260 262 266 269 272 275 278 278 280 281 282 284 286 288 289 290 291 290 290 292 295 297 299 303 305 307 308 309 309 307 306 304 304 306 309 310 311 313 314 316 318 317 315 314 313 312 312 313 313 313 313 314 315 315 315 315 315 317 316 316 318 317 314 313 313 312 312 312 312 312 313 314 315 316 317
250 249 249 249 248 249 249 251 252 254 256 258 261 263 265 267 270 273 276 279 281 282 282 283 284 285 286 288 289 289 289 290 292 294 297 300 304 305 306 307 308 307 306 305 305 304 305 307 309 311 312 313 314 316 317 314 312 311 311 311 312 313 313 313 314 315 315 314 314 315 316 316 316 318 316 313 313 313 313 314 314 314 313 313 314 315 315 318
251 251 250 250 250 250 251 252 254 256 258 260 262 264 267 268 271 273 274 279 282 284 285 286 287 287 288 289 289 289 289 290 292 295 299 302 304 304 305 307 307 306 305 305 305 305 305 306 308 310 311 311 313 316 317 315 312 311 311 311 312 312 312 312 311 313 313 311 312 313 314 315 316 317 315 314 314 314 315 316 316 315 314 313 314 313 314 318
254 253 253 253 253 253 253 254 257 258 259 261 263 265 267 269 271 273 276 279 282 283 285 287 288 289 289 289 289 289 289 291 293 297 300 302 303 303 304 305 306 306 305 304 305 305 305 305 307 308 309 310 312 315 316 315 313 312 311 310 310 310 310 310 310 312 312 311 313 312 312 316 318 317 315 314 315 315 316 316 316 315 314 313 312 312 315 317
256 255 255 255 255 255 256 257 258 259 261 262 263 265 267 268 271 273 277 280 281 282 284 286 287 288 289 288 288 288 289 291 294 297 300 301 301 302 303 304 304 304 304 304 304 304 305 305 306 307 308 310 312 314 315 315 313 312 311 310 309 309 310 311 311 312 312 313 314 312 311 317 319 315 313 313 313 314 315 314 314 314 314 313 313 313 315 316
257 257 257 257 257 257 257 258 259 260 261 262 263 264 266 269 272 274 276 279 281 283 283 284 285 286 287 286 286 287 289 292 295 298 299 299 299 300 302 302 301 302 302 303 303 304 305 306 306 307 308 310 312 313 314 313 312 311 310 310 310 310 311 312 312 313 313 314 315 310 310 316 317 313 312 311 312 313 313 313 314 313 314 314 315 315 315 315
258 257 258 257 258 258 258 259 259 260 260 262 263 265 267 270 272 274 276 277 281 283 282 282 283 285 285 285 286 288 290 292 294 297 297 297 298 299 300 300 300 301 301 303 304 304 305 305 306 307 308 309 311 312 313 312 311 311 310 310 309 309 310 311 311 312 312 315 315 311 311 315 316 314 312 311 312 313 313 314 315 315 315 316 316 316 314 314
259 259 259 259 259 259 259 259 260 261 261 263 264 266 268 270 272 274 275 276 280 281 280 282 283 283 284 284 286 288 290 292 294 296 296 296 296 297 298 299 300 301 302 303 304 304 306 305 305 307 307 309 311 313 313 313 312 310 309 309 308 308 309 309 310 311 312 315 315 312 313 315 317 317 313 312 314 314 314 315 316 316 316 317 316 314 313 313
260 260 260 260 260 260 260 261 261 262 263 263 264 266 268 270 272 273 274 276 277 276 278 280 281 282 283 285 286 288 290 291 293 294 294 294 294 295 296 297 299 300 302 303 304 305 305 305 305 306 307 310 312 313 313 312 311 309 308 308 308 309 309 309 311 311 313 316 315 314 315 316 318 318 314 315 316 314 315 316 316 317 317 316 315 313 312 312
261 261 261 261 261 261 261 261 261 262 263 264 265 266 268 270 271 272 275 278 276 275 277 278 279 281 282 284 286 287 289 291 292 293 293 293 293 293 294 296 297 298 301 302 304 305 305 305 305 306 308 311 312 312 312 311 310 309 309 308 308 308 308 309 311 311 314 317 316 317 317 316 319 318 315 316 315 314 316 316 316 317 316 316 314 313 312 311
261 261 262 262 262 262 262 262 263 263 264 265 266 267 269 270 272 275 277 277 276 277 278 277 278 280 281 283 285 287 288 290 291 292 293 293 292 292 293 294 295 296 299 301 304 306 305 305 305 305 307 310 311 312 312 311 309 309 309 309 308 307 306 309 310 310 314 316 316 317 316 317 318 316 315 316 314 315 316 315 316 316 315 315 314 312 311 310
262 262 262 262 262 263 263 264 264 265 265 265 266 267 269 271 274 278 278 276 277 278 277 278 279 280 281 283 285 286 288 289 291 293 293 293 293 293 293 293 293 295 298 300 303 306 306 305 304 304 307 309 310 310 311 310 308 309 310 309 308 306 306 309 308 309 312 314 315 315 315 316 317 316 316 315 315 315 315 315 316 315 314 315 314 312 311 311
262 262 263 263 263 263 263 263 263 263 264 264 265 267 268 271 276 277 277 277 278 277 277 278 279 280 281 283 284 285 286 288 290 292 293 294 294 293 293 293 293 294 297 299 302 306 307 305 303 304 307 308 308 309 310 309 308 308 309 309 308 307 307 309 308 308 311 313 315 315 315 316 316 317 317 316 315 314 314 315 315 314 314 315 315 313 312 313
262 262 263 263 264 264 264 264 263 263 262 263 264 265 268 272 276 275 274 276 277 278 278 278 279 280 281 283 284 285 286 288 290 292 293 293 294 294 294 292 292 293 296 299 302 305 306 306 304 305 307 306 306 308 309 308 307 308 309 309 309 308 309 310 309 310 311 313 316 316 316 317 318 319 319 316 315 314 315 317 315 314 315 316 315 314 313 314
261 261 262 262 263 264 264 264 264 263 263 263 263 264 268 273 274 272 272 274 276 278 279 279 280 281 281 282 283 285 286 288 290 291 292 292 293 295 294 292 292 293 295 299 303 305 306 306 305 306 306 306 306 307 307 307 307 307 309 309 309 309 310 310 310 312 312 313 316 317 318 318 319 320 319 315 313 314 316 315 313 315 316 316 315 314 313 315
261 261 262 262 263 263 263 263 263 263 263 263 263 265 268 272 273 272 272 272 274 276 277 278 280 281 281 282 284 285 286 288 289 289 290 292 293 294 293 292 293 293 295 299 302 304 304 305 306 306 306 306 306 306 306 306 307 308 309 309 310 310 310 309 311 312 312 313 316 319 319 318 319 320 317 312 312 315 316 314 314 316 316 315 314 313 314 316
261 261 262 263 264 263 263 263 263 263 262 263 265 267 268 271 272 273 272 272 273 275 277 278 280 280 282 284 285 285 286 288 289 289 290 291 292 293 292 291 292 293 295 298 300 301 301 304 306 306 306 305 305 305 306 306 307 308 309 309 310 310 309 309 311 312 311 311 315 318 317 316 320 320 314 310 313 316 314 313 315 316 315 315 314 314 317 318
260 261 262 264 264 264 264 264 264 264 264 265 269 270 270 270 272 273 274 274 275 277 279 281 281 282 284 285 285 285 285 287 288 290 291 291 291 292 291 291 292 292 294 296 298 299 300 303 306 306 305 305 304 305 305 306 306 307 307 309 310 310 309 310 311 312 311 310 314 316 315 317 322 319 312 311 315 315 313 314 316 315 315 315 315 317 319 320
261 261 262 263 264 264 264 264 265 265 266 268 270 270 270 271 272 274 276 277 278 279 281 282 283 284 285 285 285 285 285 287 289 289 290 290 291 290 291 292 292 293 294 295 296 297 299 302 305 305 303 303 303 303 304 305 306 306 307 309 310 309 309 311 312 313 312 311 314 314 313 318 322 315 311 313 315 313 313 315 316 316 317 316 317 320 321 322
261 262 262 263 265 265 264 264 264 266 266 267 268 269 270 271 273 275 277 277 278 280 281 282 283 284 284 284 284 284 285 287 288 288 289 290 290 290 292 293 293 293 294 295 296 297 299 302 304 303 302 302 302 302 304 305 305 305 307 309 309 308 310 312 313 314 312 313 316 313 312 321 320 312 313 316 314 313 314 316 317 318 319 318 319 322 323 324
261 261 262 262 264 265 265 265 266 266 267 268 269 270 270 271 272 274 276 277 278 279 280 281 283 284 284 284 285 285 285 286 287 287 287 288 289 292 293 293 293 294 294 294 296 297 299 300 301 301 301 301 301 302 303 304 303 304 307 308 308 309 311 313 314 314 311 314 316 312 314 322 318 313 316 316 313 314 316 318 320 321 320 320 322 324 325 326
262 262 262 261 262 264 266 267 268 269 270 271 270 270 270 271 272 274 276 277 279 280 281 282 283 284 284 284 285 285 286 286 287 286 286 288 291 293 293 294 294 294 293 294 296 297 298 299 300 301 301 300 301 302 302 302 302 304 306 307 307 309 312 313 314 313 312 315 314 311 316 322 317 315 318 315 313 315 318 320 322 322 321 322 324 325 326 328
264 264 263 262 263 265 266 269 271 271 271 271 270 270 271 272 273 274 275 277 278 280 281 282 283 284 284 284 284 285 286 286 286 286 287 290 292 293 293 293 292 293 294 295 297 297 298 299 300 300 300 300 301 302 301 301 302 304 306 306 308 311 312 313 314 312 312 315 312 312 318 320 316 317 318 314 313 317 319 322 323 322 322 324 325 326 327 328
265 264 264 264 265 266 268 271 272 272 271 271 270 271 272 272 273 274 275 276 277 278 280 281 282 282 283 284 285 286 286 286 286 287 289 292 292 292 291 291 291 293 295 296 296 297 298 299 300 300 300 300 301 301 300 301 302 304 306 307 309 311 313 314 312 310 312 313 312 315 319 317 317 319 317 313 315 319 321 323 323 323 323 325 326 326 327 329
266 266 266 267 267 268 269 270 271 271 271 272 272 272 272 273 274 275 275 276 277 278 280 280 280 281 282 284 285 285 285 286 287 289 291 292 291 290 290 290 293 294 295 296 296 297 298 299 301 301 300 301 303 302 302 302 304 305 307 309 310 312 314 313 311 311 313 312 313 318 318 316 319 319 314 313 317 320 322 323 323 323 324 325 326 327 328 329
268 268 269 270 269 269 268 268 269 270 271 270 270 270 271 273 274 275 276 276 278 279 279 279 280 281 283 283 283 283 284 286 288 290 292 291 289 289 290 292 294 295 295 296 296 298 298 299 301 300 300 303 304 304 304 304 305 307 309 310 312 314 314 311 310 313 313 311 314 319 316 315 320 318 313 315 319 322 323 322 322 323 324 326 327 327 328 330
269 270 271 271 270 269 269 269 270 270 269 268 269 270 271 272 274 274 275 276 277 277 277 278 279 281 281 282 282 282 284 286 288 290 290 289 288 289 290 293 294 295 296 296 297 298 298 299 300 300 300 303 303 303 304 304 306 309 309 311 315 315 312 310 312 314 312 311 316 318 315 316 320 316 314 317 321 322 322 321 322 323 324 326 327 328 329 330
269 270 271 271 271 272 272 270 269 267 267 269 271 273 273 274 274 274 275 275 275 275 276 276 277 278 279 280 280 281 284 286 288 288 287 287 287 289 291 293 294 295 297 297 298 298 298 300 300 300 301 302 303 303 303 304 306 308 310 313 316 313 310 311 314 314 311 312 316 316 315 318 319 315 315 319 321 321 321 321 322 323 324 326 327 328 329 329
269 270 271 271 271 270 270 269 268 269 270 272 273 275 277 277 276 275 275 273 273 274 275 275 277 278 278 278 279 281 284 286 286 285 285 285 287 289 291 293 295 296 297 297 298 297 298 300 300 300 301 302 303 303 302 304 305 307 312 316 313 309 311 314 313 312 311 313 315 315 316 319 317 315 317 320 321 320 320 320 322 323 324 326 327 327 328 329
269 270 269 268 268 268 269 270 270 271 271 271 273 277 278 278 277 276 274 273 273 274 275 276 277 277 276 277 279 282 285 284 283 283 284 285 287 290 291 293 295 296 296 297 297 298 298 299 300 300 301 302 302 301 302 303 303 307 314 314 309 309 313 313 311 311 312 313 314 315 317 318 316 316 319 320 319 319 319 320 321 323 324 325 326 327 328 328
269 268 268 268 269 269 269 269 269 270 270 273 277 278 277 276 277 275 273 274 275 275 275 276 275 275 275 277 280 282 283 281 281 283 284 286 288 290 291 293 294 294 296 297 297 297 298 299 300 301 301 302 301 301 301 301 302 309 314 310 308 311 312 310 310 312 312 313 315 316 317 317 316 317 319 319 318 318 319 319 321 323 324 325 325 326 327 327
267 267 267 268 268 267 268 269 270 270 272 275 277 275 275 276 276 274 274 276 276 276 276 275 274 274 275 278 280 281 280 279 281 282 284 286 288 289 290 292 293 295 296 296 296 296 297 299 300 300 300 301 301 300 300 300 303 309 311 308 309 310 309 309 311 312 312 313 315 316 316 316 316 318 318 317 316 317 318 319 321 322 323 324 325 325 326 326
Height
10857 10858 10860 10861 10861 10862 10863 10863 10863 10864 10864 10863 10863 10863 10863 10863 10863 10863 10863 10862 10861 10861 10860 10859 10858 10857 10856 10855 10854 10853 10851 10849 10848 10846 10844 10841 10839 10837 10834 10832 10829 10827 10826 10824 10822 10820 10818 10816 10814 10813 10811 10809 10808 10807 10806 10805 10804 10802 10800 10798 10795 10792 10789 10788 10787 10786 10785 10784 10783 10782 10781 10782 10783 10784 10783 10781 10778 10774 10771 10768 10766 10764 10762 10760 10758 10756 10753 10751
10855 10856 10858 10859 10860 10860 10861 10861 10862 10862 10862 10862 10862 10861 10861 10861 10861 10861 10861 10861 10860 10859 10858 10858 10857 10856 10854 10853 10852 10851 10849 10848 10846 10844 10842 10840 10838 10835 10833 10830 10828 10825 10823 10821 10820 10818 10816 10814 10812 10810 10809 10808 10806 10805 10804 10802 10801 10799 10798 10796 10793 10790 10787 10786 10785 10784 10782 10781 10781 10781 10779 10777 10778 10780 10780 10778 10776 10772 10768 10764 10762 10760 10758 10756 10755 10753 10750 10748
10853 10854 10855 10857 10858 10858 10859 10859 10860 10860 10860 10860 10860 10859 10859 10859 10859 10859 10859 10859 10859 10858 10857 10856 10855 10854 10853 10851 10850 10849 10847 10846 10844 10842 10840 10838 10836 10834 10831 10829 10827 10824 10822 10819 10817 10815 10813 10812 10810 10808 10806 10805 10804 10803 10802 10800 10798 10796 10794 10794 10791 10787 10785 10783 10783 10782 10779 10778 10777 10777 10776 10775 10774 10775 10775 10773 10771 10768 10764 10761 10759 10756 10754 10752 10751 10749 10747 10745
10850 10852 10853 10854 10855 10856 10857 10857 10858 10858 10858 10858 10858 10857 10857 10857 10857 10857 10857 10857 10857 10856 10855 10854 10853 10852 10851 10850 10848 10847 10845 10844 10842 10840 10838 10836 10834 10832 10830 10827 10825 10823 10821 10818 10816 10813 10811 10810 10808 10806 10804 10801 10800 10799 10798 10796 10795 10792 10791 10791 10788 10784 10782 10781 10779 10778 10776 10775 10774 10773 10773 10772 10771 10769 10769 10768 10765 10761 10758 10756 10754 10752 10750 10748 10746 10744 10742 10740
10848 10849 10850 10851 10853 10854 10854 10855 10855 10855 10856 10855 10855 10855 10855 10855 10855 10855 10855 10855 10855 10854 10853 10852 10851 10850 10849 10848 10846 10845 10843 10842 10840 10838 10837 10835 10832 10830 10828 10826 10823 10821 10819 10817 10815 10812 10810 10807 10806 10804 10802 10799 10797 10795 10794 10793 10791 10789 10786 10787 10785 10781 10779 10778 10776 10775 10773 10772 10771 10770 10769 10769 10769 10766 10763 10762 10759 10756 10753 10751 10749 10747 10745 10742 10740 10738 10736 10734
10845 10846 10847 10848 10850 10851 10852 10852 10853 10853 10853 10853 10853 10853 10853 10852 10852 10853 10853 10853 10852 10852 10851 10850 10849 10848 10847 10846 10844 10843 10842 10840 10838 10837 10835 10833 10831 10828 10826 10824 10822 10819 10817 10814 10812 10810 10808 10805 10803 10801 10799 10797 10795 10792 10790 10789 10788 10785 10782 10782 10781 10778 10776 10775 10774 10772 10770 10769 10768 10766 10765 10765 10766 10764 10760 10756 10753 10751 10748 10746 10744 10742 10739 10737 10735 10733 10731 10729
10843 10844 10844 10846 10847 10848 10849 10849 10850 10850 10850 10851 10850 10850 10850 10850 10850 10850 10850 10850 10850 10850 10849 10848 10847 10845 10844 10843 10842 10841 10840 10838 10836 10835 10833 10831 10829 10826 10824 10822 10820 10817 10814 10812 10809 10807 10805 10803 10800 10798 10796 10794 10792 10790 10788 10786 10785 10783 10779 10777 10777 10776 10774 10771 10770 10769 10767 10766 10765 10763 10762 10761 10762 10762 10758 10753 10748 10745 10743 10742 10740 10737 10735 10732 10730 10728 10726 10724
10840 10841 10842 10843 10844 10845 10846 10846 10847 10847 10847 10848 10848 10848 10848 10848 10848 10848 10848 10848 10847 10847 10846 10845 10844 10843 10842 10841 10840 10839 10837 10836 10834 10832 10830 10828 10826 10824 10822 10820 10817 10815 10812 10809 10807 10804 10802 10800 10798 10796 10794 10791 10790 10788 10785 10783 10782 10780 10777 10774 10772 10772 10772 10769 10767 10766 10765 10763 10762 10761 10759 10758 10758 10758 10755 10750 10744 10740 10738 10738 10736 10733 10731 10727 10725 10723 10721 10719
10837 10838 10839 10840 10841 10841 10842 10843 10844 10844 10844 10845 10845 10845 10845 10845 10845 10845 10845 10845 10845 10844 10844 10843 10842 10841 10839 10838 10837 10836 10835 10833 10831 10830 10828 10826 10824 10822 10820 10817 10815 10812 10809 10807 10804 10802 10800 10798 10796 10793 10791 10789 10787 10785 10783 10781 10779 10778 10775 10772 10769 10768 10767 10766 10764 10763 10762 10760 10759 10758 10756 10754 10753 10753 10751 10747 10741 10737 10735 10734 10732 10729 10726 10723 10720 10718 10716 10714
10835 10835 10836 10837 10837 10838 10839 10840 10840 10841 10841 10842 10842 10842 10842 10842 10843 10843 10843 10842 10842 10841 10841 10840 10839 10838 10837 10836 10835 10833 10832 10830 10829 10827 10825 10823 10821 10819 10817 10814 10811 10809 10806 10804 10801 10799 10798 10796 10794 10791 10788 10786 10785 10783 10781 10779 10777 10775 10773 10770 10768 10766 10763 10761 10760 10759 10757 10756 10755 10753 10752 10751 10750 10750 10747 10743 10738 10734 10731 10730 10727 10724 10721 10718 10716 10713 10711 10709
10832 10832 10833 10833 10834 10835 10836 10836 10837 10838 10838 10839 10839 10839 10840 10840 10840 10840 10840 10839 10839 10838 10838 10837 10836 10835 10834 10833 10832 10831 10829 10828 10826 10824 10822 10820 10818 10816 10813 10811 10808 10806 10803 10801 10799 10797 10795 10793 10791 10789 10786 10784 10782 10780 10778 10777 10775 10773 10771 10768 10766 10764 10761 10759 10756 10755 10753 10751 10750 10749 10748 10747 10747 10747 10744 10739 10734 10730 10727 10725 10722 10719 10716 10713 10710 10707 10704 10702
10829 10829 10830 10830 10831 10831 10832 10833 10833 10834 10835 10835 10836 10836 10837 10837 10837 10837 10837 10837 10836 10836 10835 10834 10833 10832 10831 10830 10829 10828 10826 10825 10823 10821 10819 10817 10815 10813 10810 10808 10805 10802 10800 10797 10795 10794 10792 10790 10788 10786 10783 10782 10781 10778 10775 10773 10771 10770 10768 10765 10763 10761 10759 10756 10753 10751 10749 10747 10747 10746 10744 10743 10743 10742 10740 10735 10730 10725 10723 10720 10717 10714 10710 10707 10704 10701 10698 10696
10825 10826 10826 10827 10827 10828 10829 10829 10830 10831 10831 10832 10833 10833 10833 10834 10833 10833 10833 10833 10833 10833 10832 10831 10830 10828 10828 10827 10826 10825 10823 10822 10820 10818 10816 10814 10813 10810 10808 10805 10802 10799 10797 10794 10792 10790 10789 10786 10785 10783 10780 10779 10778 10776 10773 10771 10768 10766 10765 10762 10759 10757 10755 10752 10749 10746 10744 10742 10742 10741 10740 10739 10738 10737 10734 10730 10726 10722 10719 10716 10713 10710 10706 10702 10699 10697 10693 10690
10822 10822 10823 10823 10824 10824 10825 10826 10826 10827 10828 10829 10829 10830 10830 10830 10830 10830 10830 10830 10830 10829 10829 10828 10827 10825 10824 10824 10823 10821 10820 10818 10817 10815 10813 10811 10809 10807 10805 10802 10800 10797 10794 10791 10789 10787 10786 10783 10781 10779 10776 10775 10774 10773 10771 10768 10765 10762 10761 10759 10757 10754 10752 10748 10744 10740 10738 10736 10735 10734 10733 10733 10733 10732 10729 10725 10721 10718 10716 10713 10710 10707 10703 10700 10697 10693 10689 10685
10818 10819 10819 10820 10820 10821 10822 10822 10823 10824 10825 10825 10826 10826 10826 10827 10827 10826 10826 10826 10826 10826 10825 10825 10824 10822 10820 10820 10819 10818 10816 10815 10813 10811 10810 10808 10806 10804 10802 10799 10796 10793 10791 10788 10785 10784 10782 10780 10778 10775 10773 10771 10770 10768 10767 10765 10762 10758 10756 10754 10753 10751 10750 10747 10742 10737 10735 10734 10732 10729 10727 10727 10728 10728 10725 10722 10718 10715 10712 10709 10707 10704 10699 10695 10692 10688 10684 10679
10814 10815 10816 10816 10817 10818 10818 10819 10819 10820 10821 10821 10822 10823 10823 10823 10823 10823 10823 10823 10823 10822 10822 10821 10820 10819 10817 10816 10816 10814 10812 10811 10809 10808 10806 10804 10802 10800 10799 10796 10793 10790 10787 10785 10783 10780 10779 10777 10775 10773 10770 10767 10765 10763 10761 10760 10758 10755 10752 10748 10747 10746 10745 10745 10741 10736 10733 10732 10730 10727 10724 10721 10721 10722 10719 10716 10712 10708 10704 10701 10698 10694 10690 10687 10684 10680 10676 10672
10810 10811 10811 10813 10813 10814 10815 10815 10816 10817 10817 10818 10818 10819 10819 10819 10820 10820 10820 10820 10820 10819 10818 10817 10817 10815 10813 10812 10812 10810 10809 10807 10805 10804 10802 10801 10799 10796 10795 10793 10790 10787 10783 10781 10779 10776 10775 10774 10771 10769 10766 10764 10762 10760 10758 10755 10753 10752 10749 10746 10743 10741 10741 10741 10738 10734 10731 10729 10726 10724 10721 10717 10715 10714 10711 10706 10702 10697 10693 10690 10686 10682 10678 10675 10673 10670 10667 10663
10806 10807 10807 10809 10810 10811 10811 10812 10813 10813 10814 10814 10814 10814 10815 10816 10816 10816 10816 10816 10816 10816 10814 10813 10813 10811 10809 10809 10808 10807 10805 10803 10801 10800 10798 10797 10795 10793 10792 10790 10787 10784 10780 10777 10776 10773 10771 10769 10767 10765 10763 10761 10759 10757 10756 10753 10750 10747 10745 10742 10740 10737 10736 10736 10734 10731 10728 10726 10721 10719 10717 10713 10710 10707 10703 10698 10694 10689 10686 10682 10679 10674 10670 10665 10663 10661 10658 10655
10802 10803 10804 10805 10806 10807 10808 10809 10809 10810 10810 10810 10810 10810 10811 10812 10813 10813 10812 10812 10812 10812 10811 10809 10809 10808 10806 10805 10804 10802 10801 10798 10797 10797 10795 10793 10792 10789 10787 10786 10784 10781 10778 10774 10772 10770 10768 10766 10763 10761 10759 10757 10755 10753 10751 10749 10747 10744 10741 10739 10736 10733 10730 10729 10729 10726 10724 10722 10717 10715 10713 10708 10705 10703 10700 10695 10689 10686 10683 10679 10675 10671 10666 10661 10658 10655 10652 10648
10799 10799 10800 10801 10802 10804 10805 10805 10806 10806 10806 10806 10806 10807 10807 10807 10809 10809 10808 10808 10808 10808 10807 10806 10804 10803 10802 10801 10799 10798 10796 10794 10793 10793 10791 10789 10788 10786 10783 10782 10780 10777 10775 10771 10768 10766 10764 10763 10760 10758 10755 10753 10751 10749 10747 10745 10743 10740 10738 10735 10733 10731 10728 10724 10724 10722 10719 10718 10713 10710 10709 10704 10700 10700 10697 10692 10686 10682 10679 10676 10672 10667 10663 10659 10654 10651 10647 10643
10795 10796 10796 10798 10799 10800 10801 10801 10802 10802 10802 10802 10802 10803 10803 10804 10805 10805 10804 10803 10803 10803 10802 10802 10801 10799 10799 10797 10796 10795 10792 10790 10788 10788 10788 10785 10784 10782 10779 10777 10775 10773 10770 10768 10765 10762 10760 10759 10756 10754 10752 10749 10748 10746 10744 10741 10738 10736 10733 10731 10729 10727 10725 10721 10720 10719 10715 10713 10710 10707 10705 10700 10694 10693 10690 10684 10680 10677 10674 10670 10666 10662 10657 10653 10649 10645 10641 10637
10791 10792 10792 10794 10795 10796 10797 10797 10798 10798 10799 10798 10798 10799 10799 10800 10800 10801 10801 10799 10797 10797 10797 10797 10797 10796 10795 10794 10792 10790 10788 10785 10784 10783 10783 10781 10779 10777 10775 10773 10771 10769 10766 10763 10761 10758 10756 10755 10752 10750 10747 10744 10743 10742 10740 10737 10733 10731 10729 10726 10724 10722 10721 10718 10715 10715 10712 10709 10707 10704 10701 10696 10690 10687 10682 10677 10674 10670 10667 10664 10659 10655 10651 10647 10644 10640 10636 10631
10787 10788 10788 10790 10791 10792 10793 10793 10794 10795 10795 10795 10795 10795 10795 10795 10796 10797 10798 10797 10793 10790 10790 10790 10790 10789 10789 10789 10787 10785 10783 10780 10779 10778 10778 10777 10774 10771 10770 10768 10766 10765 10763 10759 10757 10755 10752 10750 10748 10745 10743 10740 10738 10736 10735 10733 10728 10725 10723 10721 10718 10715 10715 10713 10711 10710 10708 10703 10702 10701 10698 10694 10688 10682 10675 10670 10667 10663 10660 10657 10653 10649 10645 10642 10638 10634 10630 10625
10783 10784 10784 10785 10787 10788 10789 10789 10790 10790 10791 10791 10791 10791 10791 10791 10792 10792 10793 10794 10791 10786 10784 10784 10783 10782 10782 10782 10781 10780 10778 10776 10774 10773 10772 10772 10769 10767 10766 10764 10761 10760 10759 10756 10753 10751 10748 10746 10744 10741 10738 10735 10733 10731 10729 10728 10725 10720 10717 10715 10714 10711 10709 10707 10706 10705 10702 10696 10694 10692 10693 10692 10684 10676 10669 10663 10660 10657 10655 10651 10648 10644 10639 10636 10632 10627 10624 10618
10779 10780 10780 10781 10782 10784 10785 10785 10786 10786 10786 10787 10787 10786 10787 10787 10788 10788 10788 10790 10789 10783 10780 10779 10777 10776 10776 10776 10776 10774 10773 10771 10769 10768 10766 10766 10764 10762 10761 10760 10758 10755 10755 10753 10749 10747 10744 10742 10740 10738 10734 10731 10729 10726 10723 10722 10720 10716 10712 10709 10707 10705 10702 10700 10699 10699 10697 10693 10688 10681 10683 10690 10683 10671 10665 10658 10655 10652 10649 10646 10642 10637 10633 10629 10624 10620 10616 10609
10774 10775 10775 10776 10777 10778 10780 10780 10780 10781 10781 10781 10782 10782 10782 10782 10783 10784 10784 10786 10786 10780 10776 10774 10771 10771 10771 10771 10770 10769 10768 10766 10764 10763 10761 10760 10758 10757 10756 10755 10754 10752 10750 10750 10746 10743 10741 10737 10734 10733 10729 10726 10724 10721 10718 10716 10714 10712 10707 10703 10700 10698 10696 10693 10692 10691 10690 10689 10684 10673 10673 10684 10681 10668 10660 10653 10650 10647 10642 10639 10635 10629 10624 10620 10616 10612 10605 10598
10769 10769 10770 10771 10772 10773 10774 10774 10774 10775 10775 10776 10777 10777 10777 10777 10777 10779 10779 10781 10783 10777 10771 10768 10766 10766 10766 10766 10765 10764 10762 10761 10760 10758 10756 10755 10753 10751 10751 10749 10749 10748 10746 10746 10743 10738 10737 10734 10729 10727 10724 10721 10719 10716 10714 10710 10708 10705 10702 10699 10695 10692 10691 10688 10686 10685 10683 10684 10679 10666 10663 10673 10675 10664 10652 10646 10643 10638 10633 10630 10626 10620 10615 10611 10607 10602 10595 10589
10763 10764 10765 10765 10766 10767 10768 10768 10768 10769 10770 10771 10771 10771 10772 10771 10772 10773 10773 10776 10780 10774 10765 10762 10761 10761 10761 10761 10760 10758 10757 10755 10755 10753 10751 10750 10747 10745 10744 10742 10742 10742 10740 10741 10740 10735 10733 10730 10725 10723 10719 10717 10714 10710 10708 10704 10701 10699 10696 10694 10690 10687 10685 10682 10681 10679 10677 10679 10673 10662 10656 10660 10666 10657 10644 10639 10635 10628 10625 10622 10617 10611 10606 10603 10598 10592 10586 10580
10758 10759 10759 10760 10761 10761 10762 10762 10762 10762 10764 10765 10765 10765 10766 10766 10766 10767 10767 10771 10773 10768 10763 10759 10756 10756 10756 10756 10755 10753 10751 10749 10749 10747 10745 10745 10742 10738 10738 10736 10735 10735 10733 10734 10735 10731 10728 10725 10721 10718 10714 10712 10708 10704 10702 10698 10695 10692 10690 10687 10683 10681 10678 10675 10675 10672 10671 10672 10666 10659 10652 10650 10656 10650 10636 10632 10627 10619 10617 10613 10608 10603 10599 10595 10590 10584 10578 10571
10752 10753 10753 10754 10755 10755 10755 10755 10756 10757 10758 10758 10759 10760 10760 10760 10760 10760 10762 10764 10763 10761 10760 10755 10752 10753 10752 10750 10749 10748 10746 10744 10742 10741 10740 10739 10736 10732 10730 10729 10728 10728 10727 10726 10728 10728 10724 10719 10716 10712 10709 10707 10703 10699 10696 10693 10689 10685 10682 10679 10676 10674 10670 10669 10668 10664 10665 10665 10658 10653 10646 10640 10645 10642 10631 10626 10619 10612 10610 10604 10600 10596 10591 10586 10581 10575 10568 10560
10745 10746 10747 10747 10748 10749 10749 10748 10749 10750 10751 10752 10753 10754 10754 10754 10754 10755 10757 10755 10753 10755 10754 10749 10749 10749 10747 10746 10744 10741 10740 10739 10736 10735 10734 10733 10731 10726 10722 10722 10721 10722 10722 10720 10721 10722 10718 10714 10710 10706 10704 10701 10698 10694 10691 10687 10683 10678 10675 10672 10671 10667 10664 10664 10661 10657 10657 10656 10652 10647 10641 10635 10634 10631 10625 10619 10611 10606 10602 10597 10593 10588 10582 10577 10572 10566 10558 10550
10739 10740 10740 10741 10742 10742 10741 10741 10743 10743 10744 10745 10746 10748 10748 10748 10750 10751 10749 10745 10745 10749 10747 10742 10744 10744 10742 10742 10739 10735 10734 10732 10731 10729 10727 10727 10725 10721 10715 10713 10710 10712 10716 10716 10715 10716 10714 10709 10704 10701 10699 10695 10692 10688 10685 10681 10676 10673 10669 10664 10662 10660 10659 10659 10655 10652 10651 10649 10646 10641 10635 10631 10626 10620 10614 10606 10601 10598 10594 10590 10586 10578 10572 10569 10562 10554 10547 10540
10732 10733 10734 10734 10735 10734 10734 10734 10735 10736 10737 10738 10740 10742 10742 10743 10747 10746 10740 10736 10736 10741 10741 10737 10738 10737 10736 10736 10732 10729 10727 10726 10726 10723 10721 10720 10719 10715 10710 10705 10700 10700 10705 10709 10710 10711 10710 10706 10699 10696 10694 10690 10685 10682 10679 10675 10670 10667 10663 10657 10653 10649 10651 10653 10649 10646 10646 10643 10639 10633 10628 10625 10619 10612 10604 10594 10588 10587 10584 10581 10575 10567 10562 10557 10550 10541 10534 10529
10725 10726 10727 10728 10727 10727 10727 10726 10727 10729 10730 10732 10733 10736 10737 10740 10742 10738 10733 10729 10727 10730 10733 10731 10731 10731 10731 10729 10725 10722 10719 10720 10720 10717 10715 10715 10713 10710 10705 10698 10693 10690 10693 10698 10702 10703 10704 10702 10695 10691 10689 10684 10680 10676 10672 10668 10664 10662 10657 10651 10647 10640 10638 10641 10639 10637 10637 10637 10634 10625 10619 10615 10609 10604 10594 10583 10577 10574 10573 10570 10561 10555 10551 10544 10537 10529 10521 10517
10718 10719 10720 10720 10720 10720 10718 10718 10720 10722 10723 10725 10727 10730 10734 10736 10735 10729 10726 10724 10720 10721 10723 10722 10723 10724 10724 10722 10718 10714 10711 10712 10714 10711 10709 10708 10707 10706 10700 10692 10687 10683 10682 10685 10690 10693 10695 10695 10690 10685 10683 10678 10674 10670 10665 10659 10655 10654 10650 10644 10640 10635 10629 10628 10629 10627 10625 10628 10630 10622 10613 10607 10601 10597 10587 10573 10568 10567 10565 10558 10550 10545 10541 10533 10525 10517 10510 10506
10711 10713 10713 10713 10713 10712 10710 10710 10712 10713 10716 10718 10721 10726 10730 10730 10726 10720 10719 10718 10714 10714 10714 10714 10716 10715 10715 10714 10711 10707 10703 10704 10706 10704 10704 10702 10701 10700 10693 10686 10681 10675 10673 10674 10677 10680 10683 10687 10684 10678 10676 10672 10667 10663 10658 10652 10646 10643 10640 10635 10631 10628 10621 10617 10619 10618 10612 10614 10621 10618 10609 10601 10595 10591 10581 10566 10562 10564 10558 10548 10542 10538 10531 10523 10513 10507 10502 10495
10704 10706 10707 10707 10705 10702 10702 10702 10704 10706 10708 10710 10715 10722 10724 10723 10718 10710 10709 10710 10708 10707 10706 10708 10709 10707 10706 10707 10704 10699 10695 10695 10697 10696 10695 10695 10695 10694 10687 10680 10675 10669 10666 10665 10666 10667 10669 10676 10678 10672 10668 10665 10660 10655 10651 10645 10638 10633 10630 10626 10622 10618 10614 10609 10607 10607 10601 10599 10609 10611 10602 10597 10591 10581 10570 10559 10557 10558 10550 10540 10536 10531 10521 10512 10503 10496 10492 10484
10696 10699 10701 10700 10695 10692 10694 10695 10696 10698 10700 10705 10712 10716 10716 10715 10710 10701 10700 10702 10701 10700 10699 10700 10699 10698 10699 10698 10695 10691 10688 10688 10689 10687 10686 10686 10686 10685 10679 10673 10669 10663 10660 10658 10658 10657 10655 10663 10672 10667 10660 10657 10652 10647 10643 10638 10632 10626 10621 10618 10613 10607 10605 10603 10598 10594 10588 10584 10593 10598 10594 10592 10587 10570 10555 10552 10552 10548 10540 10534 10529 10522 10512 10501 10492 10486 10480 10472
10688 10691 10695 10693 10684 10681 10686 10688 10688 10690 10694 10701 10706 10707 10707 10706 10702 10695 10692 10692 10692 10692 10693 10692 10689 10689 10691 10688 10685 10682 10679 10681 10682 10679 10677 10678 10677 10676 10671 10666 10661 10656 10653 10651 10649 10648 10644 10648 10661 10661 10653 10650 10645 10639 10635 10630 10623 10618 10614 10611 10606 10598 10595 10596 10592 10584 10574 10570 10575 10577 10581 10587 10580 10560 10546 10544 10544 10535 10528 10525 10520 10512 10502 10490 10482 10476 10468 10459
10680 10682 10689 10687 10674 10671 10675 10678 10681 10684 10689 10695 10698 10698 10698 10696 10694 10690 10685 10683 10685 10685 10684 10683 10681 10680 10680 10677 10675 10673 10671 10674 10675 10670 10669 10669 10667 10667 10665 10659 10653 10648 10646 10643 10641 10639 10635 10636 10646 10650 10645 10642 10638 10632 10628 10622 10614 10609 10606 10603 10597 10590 10586 10586 10587 10579 10563 10559 10561 10554 10564 10578 10565 10545 10538 10535 10530 10523 10516 10515 10509 10499 10489 10479 10471 10464 10454 10446
10669 10673 10682 10678 10664 10661 10664 10668 10676 10679 10681 10688 10690 10688 10686 10685 10686 10684 10678 10675 10676 10677 10675 10674 10673 10672 10670 10667 10664 10663 10662 10666 10667 10661 10660 10660 10658 10659 10658 10651 10645 10641 10637 10635 10633 10630 10626 10626 10633 10637 10634 10632 10629 10624 10619 10614 10607 10602 10600 10596 10587 10582 10578 10573 10576 10574 10557 10553 10550 10536 10548 10566 10549 10530 10529 10521 10513 10510 10505 10501 10494 10484 10474 10466 10460 10452 10442 10435
10660 10667 10673 10667 10657 10655 10654 10659 10670 10672 10675 10681 10679 10675 10674 10676 10678 10677 10672 10668 10667 10667 10666 10666 10665 10662 10660 10657 10654 10653 10653 10655 10657 10651 10648 10652 10653 10650 10647 10641 10637 10633 10629 10627 10626 10621 10617 10617 10620 10623 10623 10620 10618 10616 10611 10604 10599 10596 10595 10589 10580 10576 10571 10563 10561 10559 10551 10548 10539 10525 10537 10551 10537 10524 10521 10509 10500 10499 10496 10490 10480 10470 10462 10455 10448 10441 10431 10424
10654 10657 10659 10657 10653 10651 10649 10655 10663 10664 10667 10670 10666 10665 10667 10667 10669 10669 10665 10662 10660 10659 10658 10659 10657 10652 10650 10647 10644 10645 10643 10642 10645 10641 10637 10644 10646 10640 10635 10631 10628 10624 10620 10618 10617 10613 10608 10607 10608 10610 10611 10609 10607 10604 10599 10593 10590 10589 10587 10580 10573 10569 10564 10558 10550 10543 10543 10543 10527 10517 10527 10530 10521 10518 10511 10495 10490 10490 10485 10479 10468 10457 10451 10445 10437 10430 10421 10413
10642 10643 10648 10650 10649 10646 10645 10652 10654 10653 10656 10656 10654 10658 10658 10656 10659 10661 10657 10654 10653 10652 10651 10652 10648 10642 10640 10638 10635 10635 10632 10628 10631 10633 10632 10634 10633 10628 10623 10620 10619 10617 10613 10610 10607 10603 10601 10599 10597 10594 10594 10597 10599 10594 10586 10583 10581 10581 10578 10572 10566 10562 10556 10551 10542 10531 10533 10533 10519 10513 10516 10512 10506 10505 10494 10480 10479 10479 10473 10465 10455 10446 10440 10434 10427 10419 10411 10403
10627 10631 10639 10642 10641 10640 10642 10645 10643 10641 10645 10645 10643 10649 10649 10647 10651 10652 10647 10646 10647 10646 10645 10644 10639 10634 10632 10630 10627 10625 10621 10616 10618 10623 10626 10623 10619 10616 10612 10610 10610 10609 10605 10601 10596 10593 10592 10591 10589 10581 10574 10578 10584 10578 10571 10570 10569 10569 10569 10563 10557 10553 10547 10539 10530 10524 10521 10517 10515 10512 10502 10499 10500 10489 10474 10469 10468 10466 10459 10451 10443 10435 10429 10424 10416 10408 10400 10391
10614 10621 10630 10633 10630 10631 10635 10636 10631 10631 10636 10632 10630 10638 10641 10640 10643 10642 10637 10638 10640 10638 10634 10633 10631 10627 10624 10622 10617 10613 10612 10609 10608 10613 10616 10610 10604 10602 10602 10602 10602 10599 10595 10590 10586 10583 10581 10583 10582 10572 10563 10565 10566 10559 10553 10552 10553 10555 10554 10552 10548 10542 10534 10524 10517 10517 10508 10497 10510 10511 10488 10489 10497 10474 10453 10457 10458 10452 10445 10437 10430 10424 10418 10412 10404 10395 10387 10379
10604 10613 10622 10621 10615 10618 10626 10627 10623 10622 10622 10616 10618 10631 10636 10634 10635 10633 10630 10630 10629 10625 10624 10625 10624 10619 10615 10611 10604 10602 10606 10604 10602 10604 10602 10595 10590 10590 10593 10594 10592 10590 10585 10580 10576 10572 10568 10573 10574 10561 10556 10559 10555 10546 10541 10535 10538 10543 10539 10540 10541 10531 10519 10511 10507 10507 10494 10481 10498 10504 10480 10479 10486 10461 10440 10444 10445 10439 10432 10424 10418 10412 10405 10399 10391 10383 10376 10368
10595 10605 10611 10606 10602 10607 10614 10616 10611 10607 10607 10605 10610 10623 10628 10627 10626 10623 10622 10619 10615 10614 10613 10613 10616 10612 10604 10599 10591 10592 10601 10599 10594 10594 10588 10581 10580 10580 10584 10586 10583 10580 10576 10571 10568 10561 10555 10562 10564 10550 10546 10551 10545 10536 10530 10523 10525 10532 10528 10528 10530 10518 10506 10502 10499 10494 10481 10472 10484 10488 10476 10474 10468 10445 10435 10436 10432 10426 10420 10412 10406 10400 10393 10387 10379 10371 10364 10356
10587 10594 10599 10593 10589 10594 10598 10599 10596 10596 10601 10600 10600 10613 10620 10616 10615 10614 10610 10605 10604 10605 10601 10600 10608 10604 10592 10585 10580 10585 10596 10591 10581 10581 10575 10569 10571 10573 10574 10576 10574 10571 10567 10562 10558 10552 10545 10548 10551 10539 10534 10540 10536 10524 10519 10515 10513 10520 10524 10519 10511 10503 10496 10492 10488 10482 10471 10467 10471 10469 10468 10469 10453 10432 10429 10428 10419 10414 10409 10402 10396 10389 10383 10376 10368 10360 10353 10345
10578 10580 10581 10572 10571 10581 10584 10584 10585 10587 10593 10590 10592 10608 10610 10601 10604 10602 10592 10590 10596 10596 10591 10592 10599 10590 10576 10573 10574 10582 10590 10576 10563 10568 10564 10557 10562 10566 10564 10566 10566 10561 10557 10553 10548 10542 10535 10536 10538 10528 10520 10528 10527 10513 10509 10507 10501 10512 10523 10511 10493 10490 10490 10481 10475 10472 10462 10457 10458 10455 10453 10455 10442 10426 10423 10417 10407 10402 10398 10392 10387 10379 10372 10364 10356 10349 10342 10334
10564 10560 10560 10552 10558 10571 10570 10569 10573 10573 10579 10588 10593 10599 10594 10589 10594 10585 10571 10579 10590 10586 10582 10584 10584 10573 10564 10567 10572 10577 10576 10559 10549 10556 10554 10547 10553 10556 10553 10556 10556 10550 10548 10545 10539 10533 10526 10523 10524 10516 10507 10512 10514 10504 10499 10494 10492 10507 10518 10501 10481 10480 10479 10470 10465 10462 10452 10444 10445 10444 10439 10435 10427 10421 10417 10409 10398 10393 10387 10381 10376 10368 10361 10354 10346 10339 10331 10323
10547 10543 10544 10536 10539 10554 10558 10557 10559 10560 10574 10590 10586 10579 10579 10581 10581 10567 10558 10571 10580 10573 10570 10570 10567 10561 10558 10563 10569 10567 10557 10544 10540 10544 10544 10540 10542 10545 10544 10545 10545 10541 10538 10533 10526 10522 10518 10513 10511 10505 10495 10496 10499 10493 10486 10482 10487 10502 10507 10492 10478 10472 10466 10459 10456 10452 10443 10434 10433 10432 10427 10420 10414 10412 10408 10399 10391 10385 10378 10373 10365 10357 10350 10343 10336 10329 10321 10313